星链-4382 (STARLINK-4382 )

导读 | 星芒AI

STARLINK-4382 是 SpaceX Starlink 项目中的一颗低轨通信卫星,属于该计划的第四批发射任务。该卫星旨在为全球用户提供高速互联网服务,尤其关注网络覆盖不足的地区。它运行在约 550 公里的近地轨道,采用先进的相控阵天线和激光通信技术,以提高数据传输效率和系统稳定性。STARLINK-4382 与其它 Starlink 卫星共同构建了一个庞大的卫星互联网网络,推动全球通信基础设施的现代化。

基本信息
目录编号:
53194
目录名称:
STARLINK-4382
国际标识:
2022-084F
轨道中心:
EARTH
卫星名称:
星链-4382
卫星全名:
星链-4382 (STARLINK-4382 )
卫星状态:
在轨 (已飞行1248 天)
发射日期:
2022-07-22 UTC
国别 :
美国 (US)
星等 :
--
轨道信息
数据来源 国际轨道数据
星历时间: 2025-12-21T11:08:31+0800
5小时前
查看轨道信息
半长轴: 6927.648km
偏心率: 0.0000974
轨道倾角: 97.603°
近地点辐角 90.802°
升交点赤经 53.738°
平近点角 269.332°
近地点: 548.836km
远地点: 550.186km
周期: 95.640分钟
每日圈数: 15.056503
详细信息
固有亮度:
5
最大亮度:
2.5
卫星平台:
Starlink v1.5
覆盖范围:
全球
运营商:
太空探索技术公司
运营商所在国:
美国
制造商(研发单位):
太空探索技术公司
制造商所在国:
美国
使用方式:
暂无
卫星简介
星链(Starlink)计划是由太空探索技术公司(SpaceX)提出的一个巨型低轨卫星互联网星座项目,计划在2019年至2024年间在太空搭建由约1.2万颗卫星组成的“星链”网络,其中1584颗将部署在地球上空550千米处的近地轨道,并从2020年开始工作。该卫星仍在工作。
2D轨道图
3D轨道图
轨道高度分析图
轨道倾角分析图
轨道综合分析图
查看轨道综合分析图